Location: Gouarec
(48.2289°N, 3.1815°W)
Time: 07:26:27
(UTC+00:00)

Daily predictions for brighter satellites

Satellite Brightness Start Highest point End
(mag) Time Altitude Azimuth Time Altitude Azimuth Time Altitude Azimuth
SL-8 Rocket 4.3 20:02:16 10° SSW 20:08:26 78° W 20:14:42 10° N
Cosmos 2082 Rocket 3.6 20:05:24 10° SE 20:09:08 18° E 20:12:52 10° ENE
Cosmos 1500 Rocket 3.5 20:10:19 10° S 20:14:38 82° E 20:18:58 10° N
Cosmos 2322 Rocket 4.4 20:15:30 10° N 20:18:10 13° NNE 20:20:49 10° ENE
Ariane Rocket 3.9 20:13:38 10° S 20:18:34 51° W 20:23:30 10° NNW
Meteor 1-4 Rocket 4.2 20:17:13 10° NNE 20:19:47 19° ENE 20:22:19 10° ESE
USA 186 3.6 20:18:05 10° SSW 20:19:52 20° W 20:21:40 10° NW
Resurs 1-3 3.6 20:15:37 10° SSE 20:20:00 79° ENE 20:24:24 10° NNW
SL-08 R/B 4.5 20:16:46 10° S 20:22:58 75° E 20:29:07 10° NNE
FREGAT/IRIS 4.4 20:21:03 10° SSW 20:23:23 27° W 20:25:44 10° NW
SL-8 R/B 4.2 20:19:30 10° W 20:24:11 50° SSW 20:28:49 10° SE
CZ-2C R/B 2.6 20:19:08 10° NNE 20:24:21 89° WNW 20:29:33 10° SSW
Cosmos 407 Rocket 4.2 20:19:57 10° SSE 20:24:44 35° ESE 20:29:30 10° NE
Terra 3.9 20:22:38 10° E 20:24:52 13° NE 20:27:05 10° NNE
USA 234 3.6 20:19:39 10° ESE 20:26:06 63° NNE 20:32:32 10° NW
Meteor 1-27 Rocket 4.1 20:24:51 10° N 20:30:39 55° ENE 20:36:28 10° SSE
Meteor 1-10 Rocket 4.3 20:25:34 10° N 20:31:15 83° E 20:37:01 10° SSE
MetOp-B 4.5 20:26:14 10° SE 20:31:24 51° ENE 20:36:35 10° N
Cosmos 1782 4.2 20:28:52 10° NNW 20:32:38 39° W 20:36:23 10° SSW
ERBS 3.4 20:32:37 10° WSW 20:35:50 47° NNW 20:39:04 10° NE
BREEZE-M DEB (TANK) 3.8 20:30:55 10° WNW 20:36:16 29° SW 20:38:53 10° SSE
Cosmos 1805 Rocket 3.5 20:33:20 10° S 20:37:44 71° E 20:42:12 10° NNE
H-2A R/B 4.4 20:34:09 10° SW 20:38:06 22° W 20:42:01 10° NW
SPOT 5 4.3 20:35:54 10° ESE 20:38:55 19° ENE 20:42:02 10° NNE
Cosmos 1980 Rocket 2.8 20:36:58 10° NNW 20:42:26 44° NE 20:47:05 14° ESE
SPOT 1/Viking Rocket 4.2 20:39:53 12° SE 20:44:19 41° ENE 20:49:13 10° N
SL-4 R/B 2.6 20:42:59 10° SSW 20:46:32 31° SE 20:49:51 10° E
BREEZE-M DEB (TANK) 2.1 20:45:00 10° WSW 20:47:29 83° SSE 20:53:09 10° ENE
Genesis I 4.2 20:44:13 10° NNW 20:47:51 36° NE 20:50:44 15° ESE
Cosmos 972 4.4 20:42:39 10° NNW 20:47:56 90° WSW 20:52:44 11° SSE
Cosmos 1140 Rocket 3.8 20:45:23 10° S 20:50:20 44° ESE 20:55:18 10° NE
ATLAS 5 CENTAUR R/B 2.9 20:45:19 10° NW 20:50:53 54° SW 20:57:17 10° SSE
Cosmos 389 Rocket 3.2 20:50:59 10° NNW 20:54:21 51° W 20:57:42 10° S
Cosmos 2228 Rocket 4.4 20:50:42 10° NNW 20:54:50 39° W 20:58:56 10° SSW
Cosmos 1812 3.2 20:53:38 10° NNW 20:57:27 62° W 21:01:14 10° S
Cosmos 1697 Rocket 2.7 20:52:39 10° NNW 20:58:18 87° WSW 21:03:04 15° SSE
Cosmos 1833 Rocket 2.6 20:53:42 10° SSW 20:59:16 70° ESE 21:04:53 10° NNE
Cosmos 1633 Rocket 3.3 20:55:05 10° SSE 20:59:19 49° E 21:03:35 10° NNE
SPOT 3 Rocket 4.5 20:56:57 10° S 21:01:58 48° W 21:07:01 10° NNW
Cosmos 1867 4.1 21:00:38 10° S 21:05:34 37° ESE 21:10:33 10° NE
CENTAUR R/B 3.7 21:04:45 17° ESE 21:06:07 18° ESE 21:10:23 10° ENE
Cosmos 1707 Rocket 3.6 21:04:39 10° NNW 21:09:02 76° W 21:12:53 13° S
Resurs 01 Rocket 2.4 21:05:47 10° S 21:10:03 49° W 21:14:22 10° NNW
FALCON 9 DEB 3.7 21:09:04 10° SSW 21:12:16 35° SE 21:15:22 11° ENE
Landsat 7 3.8 21:08:59 16° SSE 21:12:45 83° ENE 21:17:33 10° NNW
Cosmos 1441 Rocket 4.0 21:10:14 10° SSW 21:13:56 51° WNW 21:17:38 10° N
deb Kosmos-1763 4.3 21:14:16 18° S 21:16:38 47° ESE 21:20:09 10° NNE
Cosmos 676 Rocket 4.2 21:14:05 10° S 21:19:12 49° ESE 21:24:21 10° NNE
ATLAS 5 CENTAUR R/B 3.7 21:18:14 10° N 21:20:03 17° NE 21:22:57 10° E
Cosmos 192 4.4 21:15:11 10° NNW 21:20:05 64° ENE 21:22:57 24° SE
IGS 5A 3.5 21:17:35 19° S 21:20:33 81° WSW 21:24:42 10° NNW
Meteor 1-25 Rocket 4.5 21:17:53 18° SSE 21:21:46 48° E 21:27:08 10° NNE
Cosmos 1470 Rocket 3.9 21:19:31 22° SSE 21:22:02 48° E 21:26:16 10° NNE
Cosmos 1934 Rocket 4.0 21:17:38 10° S 21:24:00 84° E 21:30:25 10° N
Aureole 1 Rocket 4.4 21:18:18 10° S 21:24:58 68° ESE 21:33:10 10° NNE
Cosmos 2360 4.4 21:19:50 10° NNW 21:25:34 72° WSW 21:29:33 20° SSE
Shenzhou-11 Module 3.9 21:24:36 10° SW 21:25:14 13° SW 21:25:14 13° SW
SWAS 4.5 21:22:31 10° SSW 21:26:51 86° WNW 21:31:12 10° NNE
GP-B 3.0 21:23:04 10° N 21:27:33 85° E 21:30:41 19° S
NOSS 3-2 (A) 3.6 21:26:11 10° S 21:31:32 44° ESE 21:37:34 10° NE
USA 267 3.3 21:26:30 10° NE 21:33:05 86° NNW 21:39:39 10° WSW
Cosmos 921 Rocket 3.1 21:28:56 10° NNW 21:33:08 58° ENE 21:34:51 32° SE
Cosmos 1862 Rocket 3.6 21:31:05 10° N 21:35:36 82° W 21:38:10 25° S
NOSS 3-2 (C) 4.1 21:35:51 26° SE 21:37:38 31° ESE 21:43:06 10° NE
COSMOS 2406 4.3 21:32:17 10° SW 21:37:50 48° NW 21:43:24 10° NNE
ERS-1 Rocket 2.9 21:36:09 26° SSE 21:38:59 80° ENE 21:44:02 10° NNW
OPS 6432 4.4 21:35:12 10° SSW 21:39:23 74° SE 21:42:38 10° NE
SAR-Lupe-2 3.6 21:37:34 10° NNE 21:41:06 54° ESE 21:41:55 42° SSE
SL-16 R/B 3.0 21:35:56 10° NNW 21:41:17 40° NE 21:44:17 23° ESE
Lacrosse 5 2.5 21:37:16 10° NW 21:42:14 51° NNE 21:45:32 20° E
Cosmos 468 Rocket 4.4 21:38:05 10° NNW 21:43:19 53° ENE 21:45:45 30° SE
Cosmos 1954 Rocket 4.0 21:47:09 10° SSW 21:52:29 88° ESE 21:57:51 10° NNE
Cosmos 2082 Rocket 2.3 21:46:49 10° SSW 21:52:32 79° WNW 21:58:15 10° NNE
Meteor 1-4 Rocket 4.1 21:51:47 10° NNW 21:54:53 30° W 21:56:38 19° SW
Spot 2 Rocket 4.4 21:51:36 16° SSW 21:55:21 43° W 22:00:14 10° NNW
Cosmos 2278 4.2 21:49:56 10° NW 21:55:29 54° WSW 21:58:39 25° S
Cosmos 1184 Rocket 3.5 21:53:56 26° SW 21:55:31 53° WNW 21:58:46 10° N
CARTOSAT-1 3.8 21:57:12 32° S 21:59:04 65° W 22:03:23 10° NNW
Terra 1.7 22:00:02 38° SSE 22:01:52 83° ENE 22:06:39 10° NNW
Cosmos 1933 Rocket 3.5 22:01:23 35° S 22:03:14 88° E 22:07:41 10° N
Cosmos 2322 Rocket 2.8 21:58:13 10° NNW 22:03:43 47° NE 22:06:13 29° ESE
Okean 1 3.3 22:02:00 10° NNW 22:06:04 81° W 22:07:07 48° S
Cosmos 1238 Rocket 2.7 22:06:54 48° WSW 22:07:20 54° W 22:10:14 10° N
Cosmos 2100 Rocket 4.2 22:05:35 34° SE 22:07:51 49° E 22:13:44 10° NNE
Cosmos 1602 3.7 22:06:47 47° SSW 22:07:51 87° WNW 22:11:48 10° N
USA 234 3.5 22:06:06 31° SSE 22:09:12 55° SW 22:15:37 10° WNW
Meteor 1-20 Rocket 4.5 22:05:30 16° SSW 22:10:13 71° WNW 22:16:05 10° N
Cosmos 1437 Rocket 2.5 22:06:33 10° N 22:10:23 76° ENE 22:10:50 65° SE
Cosmos 1605 Rocket 4.2 22:05:45 15° SSW 22:10:52 69° WNW 22:16:58 10° N
Cosmos 1869 Rocket 3.9 22:13:01 45° ESE 22:13:26 46° E 22:17:41 10° NNE
SPOT 5 3.2 22:15:08 34° SSW 22:16:40 51° W 22:20:56 10° NNW
Cosmos 2360 Rocket 3.2 22:12:35 10° NNW 22:17:49 36° NE 22:20:20 25° E
JB-3 4.3 22:16:26 10° NNE 22:20:26 67° ESE 22:20:44 64° SE
ATLAS 3B R/B 3.7 22:21:12 25° ESE 22:21:12 25° ESE 22:25:56 10° ENE
Iridium 4 Rocket 3.2 22:21:44 50° ESE 22:22:09 52° E 22:26:17 10° NNE
Meteor 1-19 Rocket 4.2 22:17:02 10° NNW 22:22:27 72° W 22:24:35 37° S
Geosat 4.3 22:20:48 39° ESE 22:22:28 58° NE 22:27:25 10° NNW
Cosmos 1703 Rocket 3.6 22:18:55 10° NNW 22:23:16 73° W 22:24:15 51° SSW
Cosmos 2173 Rocket 4.0 22:21:11 39° SSE 22:23:22 60° E 22:29:24 10° NNE
Cosmos 2242 Rocket 4.1 22:19:14 10° NNW 22:23:34 53° W 22:24:57 37° SSW
Cosmos 1500 3.5 22:25:10 51° ENE 22:25:10 51° ENE 22:28:27 10° NNE
Genesis I 4.5 22:21:58 10° WNW 22:25:20 28° WSW 22:25:37 28° SW
Cosmos 405 Rocket 3.3 22:24:28 37° SW 22:25:31 51° WNW 22:29:10 10° N
SL-4 R/B 1.8 22:22:07 10° WSW 22:25:56 73° NNW 22:27:13 38° ENE
Cosmos 1980 Rocket 3.3 22:21:14 10° NW 22:26:20 35° WSW 22:28:51 24° SSW
USA 238 DEB 3.6 22:20:44 10° SW 22:27:23 90° NW 22:34:22 10° NE
USA 238 3.6 22:20:51 10° SW 22:27:29 90° SSE 22:34:28 10° NE
ALOS 2 4.3 22:27:44 20° ENE 22:28:33 21° ENE 22:31:52 10° NNE
Cosmos 1763 Rocket 3.5 22:24:17 10° NNW 22:29:37 78° WSW 22:31:09 47° S
Meteor 1-14 Rocket 4.3 22:29:24 31° SSW 22:32:22 80° W 22:38:22 10° N
Cosmos 1536 4.3 22:34:39 25° ENE 22:34:39 25° ENE 22:37:14 10° NNE
Cosmos 1666 4.0 22:37:32 28° ENE 22:37:32 28° ENE 22:39:57 10° NNE
Cosmos 2333 Rocket 3.9 22:33:18 10° N 22:38:04 25° NE 22:41:19 16° E
Cosmos 2016 Rocket 4.2 22:39:51 43° SE 22:41:36 57° E 22:47:50 10° NNE
Meteor 1-13 Rocket 4.2 22:36:34 10° N 22:42:06 66° ENE 22:43:23 50° SE
Meteor 1-5 Rocket 4.3 22:40:38 47° SSE 22:42:21 70° E 22:48:18 10° NNE
Cosmos 2061 Rocket 4.1 22:41:23 44° SE 22:43:00 58° E 22:49:04 10° NNE
Okean 1-7 3.6 22:40:24 10° NNW 22:44:35 48° W 22:45:21 43° SW
Cosmos 1459 Rocket 3.9 22:42:36 41° S 22:44:58 85° E 22:51:22 10° N
MOS 1-B Rocket 3.8 22:39:51 10° NNE 22:45:32 62° ESE 22:46:44 50° SSE
Cosmos 2221 Rocket 3.7 22:41:47 10° N 22:46:13 61° ENE 22:46:29 60° E
FALCON 9 DEB 3.9 22:45:45 10° W 22:48:50 52° NW 22:48:50 52° NW
Okean 3 3.3 22:46:05 10° N 22:50:23 82° E 22:50:30 81° ESE
Cosmos 1733 Rocket 4.0 22:50:59 36° ENE 22:50:59 36° ENE 22:54:35 10° NNE
SL-27 R/B 3.4 22:53:09 40° NNE 22:53:09 40° NNE 22:55:25 10° NNE
CENTAUR R/B 2.4 22:51:50 26° SW 22:55:32 86° SE 23:02:44 10° NE
Thor Agena Rocket 3.6 22:51:45 10° NNE 22:56:44 54° E 22:57:00 53° ESE
Cosmos 1850 Rocket 4.3 22:54:34 33° SW 22:56:53 67° WNW 23:02:10 10° NNE
Cosmos 967 Rocket 4.4 22:52:43 10° NW 22:59:09 82° NE 23:01:03 48° SE
Meteor 2-4 Rocket 4.0 22:53:51 10° NNW 22:59:27 59° W 23:00:58 44° SSW
Cosmos 1802 Rocket 4.0 22:58:40 45° S 23:00:51 90° SE 23:07:17 10° N
Cosmos 44 3.2 22:56:01 10° NW 23:00:56 89° NE 23:01:33 70° SE
Spot 4 3.7 23:06:33 74° SSE 23:06:59 88° E 23:11:51 10° NNW
Cosmos 2346 Rocket 4.3 23:03:38 10° N 23:09:43 83° W 23:11:12 54° S
Cosmos 1378 4.5 23:09:43 10° N 23:12:29 32° NE 23:12:29 32° NE
Cosmos 2233 Rocket 4.2 23:14:31 49° SE 23:15:41 56° E 23:21:51 10° NNE
USA 267 4.2 23:09:34 10° ENE 23:15:46 47° NNW 23:21:58 10° W
Cosmos 841 Rocket 3.8 23:16:30 10° NNW 23:21:35 53° WSW 23:22:05 51° SW
NOSS 3-2 (A) 4.4 23:16:40 10° WSW 23:22:21 47° NW 23:28:54 10° NE
Cosmos 540 Rocket 3.7 23:17:43 10° NNW 23:22:46 53° WSW 23:23:10 52° SW
Cosmos 1816 Rocket 4.5 23:18:52 10° NNW 23:25:10 79° W 23:26:36 55° SSW
Lacrosse 5 2.4 23:20:22 10° WNW 23:24:41 45° WSW 23:24:41 45° WSW
SL-16 R/B 2.9 23:20:09 10° NW 23:25:23 39° WSW 23:26:08 37° SW
NOSS 3-2 (C) 3.9 23:23:11 15° WSW 23:28:03 61° NW 23:34:44 10° NE
Cosmos 2322 4.0 23:22:40 10° NNW 23:28:19 61° ENE 23:29:31 49° ESE
Cosmos 1833 4.2 23:28:44 60° ESE 23:28:55 60° ESE 23:34:29 10° NE
Cosmos 1378 Rocket 3.8 23:24:37 10° N 23:28:49 60° ENE 23:28:49 60° ENE
COSMOS 2487 4.5 23:32:14 23° NE 23:32:14 23° NE 23:33:44 10° NNE
Cosmos 2084 Rocket 3.7 23:35:30 65° NNW 23:35:30 65° NNW 23:39:40 10° NE
Cosmos 2208 Rocket 4.4 23:30:20 10° NNW 23:35:23 47° WSW 23:35:41 47° WSW
Cosmos 1814 Rocket 4.4 23:30:28 10° NNW 23:35:29 49° WSW 23:35:45 49° WSW
Cosmos 2219 Rocket 2.8 23:31:16 10° NNW 23:36:50 51° NE 23:38:19 40° E
Tsikada Rocket 4.1 23:32:00 10° NNW 23:38:22 72° W 23:39:45 54° SSW
Terra 4.1 23:38:55 12° WSW 23:40:14 13° W 23:42:29 10° WNW
EO 1 Del DPAF 4.0 23:36:55 10° N 23:39:56 51° NNW 23:39:56 51° NNW
Cosmos 2237 4.3 23:36:30 10° NW 23:42:06 58° WSW 23:42:34 56° SW
Cosmos 1975 Rocket 4.4 23:38:20 10° N 23:42:21 31° ENE 23:42:25 31° ENE
Cosmos 2333 4.2 23:36:57 10° NNW 23:42:46 77° ENE 23:43:44 61° SE
Cosmos 1242 Rocket 3.9 23:43:43 10° NNW 23:46:07 36° NW 23:46:07 36° NW
Cosmos 2322 Rocket 3.2 23:42:36 10° NW 23:47:36 33° WSW 23:48:01 32° WSW
Helios 1A 3.6 23:49:48 49° NE 23:49:48 49° NE 23:53:35 10° N
Cosmos 1486 Rocket 4.0 23:52:11 65° E 23:52:11 65° E 23:57:14 10° NNE
Meteor 1-11 Rocket 4.3 23:51:38 40° WSW 23:53:06 50° WNW 23:58:42 10° N
